Omaha, NE

8:24 AM CST on February 12, 2016 (GMT -0600)
Millard Municipal

Weather History for KMLE - March, 2013

Change the Weather History Date:

Monday, March 18, 2013

  Actual Average (KOMA) Record (KOMA)
Temperature  
Mean Temperature 32 °F 40 °F  
Max Temperature 36 °F 52 °F 85 °F (1921)
Min Temperature 28 °F 29 °F -8 °F (1923)
Degree Days  
Heating Degree Days 33 25  
Month to date heating degree days 508  
Since 1 July heating degree days 5306  
Cooling Degree Days 0 0  
Month to date cooling degree days 0  
Year to date cooling degree days 0  
Moisture  
Dew Point 27 °F    
Average Humidity 76    
Maximum Humidity 100    
Minimum Humidity 60    
Precipitation  
Precipitation 0.05 in 0.07 in 1.31 in (1979)
Month to date precipitation 0.98  
Year to date precipitation 2.55  
Snow  
Snow 0.00 in 0.10 in - ()
Month to date snowfall 2.8  
Since 1 July snowfall 24.0  
Snow Depth -    
Sea Level Pressure  
Sea Level Pressure 29.88 in    
Wind  
Wind Speed 10 mph (WNW)    
Max Wind Speed 30 mph    
Max Gust Speed 43 mph    
Visibility 8 miles    
Events Rain    
T = Trace of Precipitation, MM = Missing Value Source: NWS Daily Summary

Daily Weather History Graph

Daily Weather History Graph

Search for Another Location

Airport or City:

Trip Planner

Search our weather history database for the weather conditions in past years. The results will help you decide how hot, cold, wet, or windy it might be!

Date:

Astronomy

Mar. 18, 2013 Rise Set
Actual Time 7:30 AM CDT 7:34 PM CDT
Civil Twilight 7:03 AM CDT 8:02 PM CDT
Nautical Twilight 6:31 AM CDT 8:34 PM CDT
Astronomical Twilight 5:58 AM CDT 9:07 PM CDT
Moon 11:27 AM CDT (3/18) 1:38 AM CDT (3/18)
Length of Visible Light 12h 59m
Length of Day
12h 04m
Waxing Crescent, 41% of the Moon is Illuminated
Mar 18
Waxing Crescent
Mar 19
First Quarter
Mar 27
Full
Apr 2
Last Quarter
Apr 10
New

Hourly Weather History & Observations

Time (CDT) Temp. Windchill Dew Point Humidity Pressure Visibility Wind Dir Wind Speed Gust Speed Precip Events Conditions
12:15 AM - - - N/A% 29.81 in 5.0 mi Calm Calm - N/A Rain Light Rain
12:35 AM - - - N/A% 29.80 in 2.5 mi Calm Calm - 0.01 in   Unknown
12:55 AM - - - N/A% 29.79 in 4.0 mi Calm Calm - 0.03 in   Unknown
1:15 AM - - - N/A% 29.76 in 3.0 mi SE 6.9 mph - N/A   Unknown
1:35 AM - - - N/A% 29.74 in 2.5 mi SE 10.4 mph - N/A   Unknown
1:55 AM - - - N/A% 29.74 in 4.0 mi SE 6.9 mph - 0.01 in Rain Light Rain
2:15 AM - - - N/A% 29.73 in 5.0 mi SE 11.5 mph - N/A   Haze
2:35 AM - - - N/A% 29.75 in 5.0 mi SSE 6.9 mph - N/A   Light Drizzle
2:55 AM - - - N/A% 29.76 in 5.0 mi SSE 6.9 mph - N/A   Unknown
3:15 AM - - - N/A% 29.78 in 4.0 mi WSW 3.5 mph - 0.01 in   Unknown
3:35 AM - - - N/A% 29.78 in 5.0 mi West 3.5 mph - 0.01 in   Haze
3:55 AM - - - N/A% 29.77 in 5.0 mi Calm Calm - 0.01 in   Haze
4:15 AM - - - N/A% 29.77 in 3.0 mi WSW 3.5 mph - N/A   Overcast
4:35 AM - - - N/A% 29.76 in 4.0 mi West 3.5 mph - N/A   Haze
4:55 AM - - - N/A% 29.75 in 5.0 mi SW 3.5 mph - N/A   Haze
5:15 AM - - - N/A% 29.75 in 3.0 mi SW 3.5 mph - N/A   Overcast
5:35 AM - - - N/A% 29.75 in 4.0 mi WSW 4.6 mph - N/A   Haze
5:55 AM - - - N/A% 29.75 in 5.0 mi West 8.1 mph - N/A   Haze
6:15 AM - - - N/A% 29.76 in 5.0 mi West 10.4 mph - N/A   Haze
6:35 AM - - - N/A% 29.77 in 10.0 mi WNW 13.8 mph 24.2 mph N/A   Mostly Cloudy
6:55 AM - - - N/A% 29.78 in 10.0 mi NW 15.0 mph 23.0 mph N/A   Clear
7:15 AM - - - N/A% 29.79 in 10.0 mi NW 17.3 mph 24.2 mph N/A   Clear
7:35 AM - - - N/A% 29.80 in 10.0 mi NW 15.0 mph 23.0 mph N/A   Clear
7:55 AM - - - N/A% 29.81 in 10.0 mi NW 12.7 mph 19.6 mph N/A   Clear
8:15 AM - - - N/A% 29.82 in 10.0 mi NW 13.8 mph 24.2 mph N/A   Clear
8:35 AM 32.9 °F 22.8 °F 32.9 °F 100% 29.82 in 10.0 mi NW 15.0 mph 23.0 mph N/A   Clear
8:55 AM 32.9 °F 21.6 °F 32.9 °F 100% 29.83 in 10.0 mi WNW 18.4 mph 25.3 mph N/A   Clear
9:15 AM 32.4 °F 20.6 °F 31.3 °F 96% 29.83 in 10.0 mi WNW 19.6 mph 25.3 mph N/A   Clear
9:35 AM 32.4 °F 20.6 °F 27.3 °F 82% 29.84 in 10.0 mi NW 19.6 mph 28.8 mph N/A   Clear
9:55 AM 33.3 °F 21.8 °F 29.1 °F 85% 29.85 in 10.0 mi NW 19.6 mph 25.3 mph N/A   Clear
10:15 AM 33.4 °F 23.1 °F 28.8 °F 83% 29.86 in 10.0 mi NW 16.1 mph 27.6 mph N/A   Clear
10:35 AM 34.5 °F 24.1 °F 30.2 °F 84% 29.86 in 10.0 mi WNW 17.3 mph 24.2 mph N/A   Clear
10:55 AM 34.7 °F 23.7 °F 28.2 °F 77% 29.87 in 10.0 mi NW 19.6 mph 32.2 mph N/A   Clear
11:15 AM 35.4 °F 22.7 °F 29.5 °F 79% 29.86 in 10.0 mi WNW 27.6 mph 35.7 mph N/A   Clear
11:35 AM 34.5 °F 22.8 °F 27.7 °F 76% 29.88 in 10.0 mi WNW 21.9 mph 34.5 mph N/A   Clear
11:55 AM 35.1 °F 23.3 °F 27.3 °F 73% 29.88 in 10.0 mi WNW 23.0 mph 35.7 mph N/A   Clear
12:15 PM 34.2 °F 21.8 °F 28.2 °F 79% 29.90 in 10.0 mi NW 24.2 mph 32.2 mph N/A   Clear
12:35 PM 35.4 °F 22.7 °F 26.8 °F 71% 29.90 in 10.0 mi WNW 27.6 mph 38.0 mph N/A   Clear
12:55 PM 34.3 °F 21.0 °F 25.0 °F 69% 29.91 in 10.0 mi NW 28.8 mph 42.6 mph N/A   Clear
1:15 PM 34.2 °F 20.6 °F 25.2 °F 70% 29.91 in 10.0 mi WNW 29.9 mph 38.0 mph N/A   Clear
1:35 PM 35.6 °F 24.2 °F 26.2 °F 69% 29.91 in 10.0 mi NW 21.9 mph 35.7 mph N/A   Clear
1:55 PM 36.0 °F 25.0 °F 27.1 °F 70% 29.91 in 10.0 mi NW 20.7 mph 34.5 mph N/A   Scattered Clouds
2:15 PM 35.6 °F 23.7 °F 27.5 °F 72% 29.92 in 10.0 mi NW 24.2 mph 31.1 mph N/A   Scattered Clouds
2:35 PM 35.6 °F 24.8 °F 26.2 °F 69% 29.92 in 10.0 mi NW 19.6 mph 33.4 mph N/A   Scattered Clouds
2:55 PM 36.5 °F 26.0 °F 27.0 °F 68% 29.92 in 10.0 mi WNW 19.6 mph 32.2 mph N/A   Scattered Clouds
3:15 PM 36.7 °F 25.4 °F 27.7 °F 70% 29.92 in 10.0 mi WNW 23.0 mph 33.4 mph N/A   Scattered Clouds
3:35 PM 35.4 °F 24.3 °F 25.9 °F 68% 29.93 in 10.0 mi NW 20.7 mph 34.5 mph N/A   Scattered Clouds
3:55 PM 35.2 °F 24.7 °F 26.4 °F 70% 29.93 in 10.0 mi WNW 18.4 mph 28.8 mph N/A   Scattered Clouds
4:15 PM 35.6 °F 23.7 °F 25.7 °F 67% 29.94 in 10.0 mi NW 24.2 mph 33.4 mph N/A   Clear
4:35 PM 36.5 °F 24.7 °F 26.2 °F 66% 29.94 in 10.0 mi WNW 25.3 mph 34.5 mph N/A   Scattered Clouds
4:55 PM 36.1 °F 25.0 °F 25.3 °F 65% 29.95 in 10.0 mi WNW 21.9 mph 31.1 mph N/A   Scattered Clouds
5:15 PM 36.0 °F 25.3 °F 23.7 °F 61% 29.95 in 10.0 mi NW 19.6 mph 31.1 mph N/A   Scattered Clouds
5:35 PM 36.5 °F 27.4 °F 24.8 °F 63% 29.95 in 10.0 mi NW 15.0 mph 25.3 mph N/A   Clear
5:55 PM 36.5 °F 24.9 °F 23.9 °F 60% 29.95 in 10.0 mi WNW 24.2 mph 27.6 mph N/A   Clear
6:15 PM 36.0 °F 25.3 °F 24.3 °F 63% 29.96 in 10.0 mi NW 19.6 mph 25.3 mph N/A   Clear
6:35 PM 35.6 °F 26.2 °F 24.4 °F 64% 29.97 in 10.0 mi NW 15.0 mph 25.3 mph N/A   Clear
6:55 PM 35.6 °F 27.1 °F 24.8 °F 65% 29.98 in 10.0 mi NW 12.7 mph 23.0 mph N/A   Clear
7:15 PM 34.9 °F 25.7 °F 25.3 °F 68% 29.98 in 10.0 mi NW 13.8 mph - N/A   Clear
7:35 PM 34.2 °F 24.4 °F 25.3 °F 70% 29.99 in 10.0 mi NW 15.0 mph 20.7 mph N/A   Clear
7:55 PM 33.8 °F 26.4 °F 25.7 °F 72% 30.00 in 10.0 mi NW 9.2 mph - N/A   Clear
8:15 PM 33.1 °F 26.1 °F 25.5 °F 74% 30.01 in 10.0 mi NW 8.1 mph - N/A   Clear
8:35 PM 32.2 °F 25.0 °F 25.7 °F 77% 30.01 in 10.0 mi NW 8.1 mph - N/A   Clear
8:55 PM 32.0 °F 26.4 °F 25.7 °F 78% 30.02 in 10.0 mi NW 5.8 mph - N/A   Clear
9:15 PM 32.0 °F - 26.6 °F 80% 30.01 in 10.0 mi Calm Calm - N/A   Clear
9:35 PM 31.8 °F 27.3 °F 26.6 °F 81% 30.01 in 10.0 mi NW 4.6 mph - N/A   Clear
9:55 PM 30.9 °F 26.2 °F 26.6 °F 84% 30.01 in 10.0 mi WNW 4.6 mph - N/A   Clear
10:15 PM 30.6 °F 25.8 °F 26.6 °F 85% 30.02 in 10.0 mi West 4.6 mph - N/A   Clear
10:55 PM 28.8 °F - 27.1 °F 94% 30.05 in 10.0 mi Calm Calm - N/A   Clear
11:15 PM 28.4 °F - 27.5 °F 96% 30.05 in 10.0 mi Calm Calm - N/A   Clear
11:35 PM 29.1 °F - 28.0 °F 96% 30.05 in 10.0 mi Calm Calm - N/A   Clear
11:55 PM 28.2 °F - 28.2 °F 100% 30.05 in 10.0 mi Calm Calm - N/A   Clear